Location: Annaville Church
(33.1210°N, 97.5847°W)
Time: 23:27:10
(UTC+00:00)

Daily predictions for brighter satellites

Satellite Brightness Start Highest point End
(mag) Time Altitude Azimuth Time Altitude Azimuth Time Altitude Azimuth
Cosmos 2369 3.8 12:00:23 10° SW 12:05:53 51° WNW 12:11:24 10° N
Aurora 2 Rocket 4.3 12:02:31 18° WSW 12:05:58 35° S 12:12:18 10° ESE
Cosmos 1400 Rocket 2.6 12:03:42 10° SSW 12:07:25 63° W 12:11:13 10° N
Cosmos 773 Rocket 4.4 12:05:41 10° NW 12:10:29 38° W 12:15:14 10° SSW
Cosmos 1782 Rocket 3.5 12:07:13 10° S 12:11:36 83° W 12:16:03 10° N
Cosmos 1908 Rocket 4.0 12:07:58 10° SSW 12:11:57 36° W 12:15:59 10° NNW
SL-16 R/B 2.6 12:08:48 10° S 12:14:23 68° ESE 12:20:01 10° NNE
Cosmos 1812 1.9 12:13:28 15° SSW 12:15:10 37° W 12:17:25 10° N
CZ-4 R/B 4.1 12:11:47 10° N 12:16:36 50° WNW 12:21:20 10° SSW
IGS 5A 3.3 12:13:44 10° N 12:17:43 87° WNW 12:21:41 10° SSW
Cosmos 372 Rocket 3.9 12:19:11 10° SSW 12:24:14 82° WNW 12:29:21 10° NNE
Cosmos 2227 Rocket 3.0 12:21:12 10° NW 12:25:58 28° WSW 12:30:43 10° SSW
Cosmos 2333 Rocket 2.7 12:20:47 10° S 12:26:29 66° ESE 12:32:11 10° NNE
Cosmos 1898 Rocket 3.5 12:28:29 10° SSW 12:33:45 88° WNW 12:39:05 10° NNE
Cosmos 1869 3.3 12:30:37 10° SSW 12:33:59 41° W 12:37:21 10° N
DELTA 2 R/B (1) 3.8 12:31:01 10° SW 12:36:32 71° SSE 12:42:04 10° ENE
Cosmos 2221 Rocket 4.3 12:33:00 10° NNW 12:37:00 32° W 12:40:59 10° SSW
Cosmos 1025 Rocket 4.3 12:37:04 10° NW 12:40:17 21° W 12:43:29 10° SW
BREEZE-M DEB (TANK) 2.2 12:38:07 10° SW 12:40:22 87° NW 12:44:56 10° NE
Cosmos 2173 Rocket 4.1 12:34:02 10° S 12:40:23 84° W 12:46:48 10° N
Cosmos 2322 Rocket 2.7 12:39:17 10° S 12:44:53 67° ESE 12:50:31 10° NNE
Cosmos 1346 Rocket 2.7 12:43:08 10° N 12:46:48 82° E 12:50:28 10° S
Cosmos 1937 Rocket 3.5 12:41:49 10° SSW 12:46:57 88° ESE 12:52:09 10° NNE
SL-4 R/B 1.8 12:43:19 10° NW 12:47:00 86° NE 12:50:49 10° SE
NOSS 3-1 (A) 3.9 12:44:22 10° WSW 12:48:07 25° NW 12:52:23 10° N
DMSP B5D1-3 4.5 12:43:13 10° S 12:48:14 73° WSW 12:53:18 10° NNW
Cosmos 1980 Rocket 3.9 12:46:51 10° WNW 12:48:27 11° NW 12:50:03 10° NW
BREEZE-M DEB (TANK) 2.3 12:46:03 10° SW 12:48:40 79° NW 12:55:23 10° NE
Cosmos 2219 Rocket 4.1 12:44:15 10° SSE 12:49:20 36° ESE 12:54:24 10° NE
COSMO-SKYMED 1 3.1 12:46:02 10° SSW 12:49:44 33° W 12:53:27 10° NNW
USA 215 4.1 12:44:28 10° ESE 12:50:45 50° NE 12:57:03 10° NNW
Cosmos 2100 Rocket 4.1 12:47:07 10° SSW 12:53:24 63° W 12:59:42 10° N
